Regional Weather Roundup
Issued by NWS

Home | Current Version | Previous Version | Text Only | Print | Product List | Glossary Off
Versions: 1 2 3 4 5 6 7 8 9 10 11 12 13 14 15 16 17 18 19 20 21 22 23 24 25 26 27 28 29 30 31 32 33 34 35 36 37 38 39 40 41 42 43 44 45 46 47 48 49 50

000
ASUS43 KOAX 301702
RWRNE

WEATHER ROUNDUP FOR NEBRASKA
NATIONAL WEATHER SERVICE OMAHA NE
1200 PM CDT SAT APR 30 2016

NOTES: SATELLITE DATA IS BEING USED TO AUGMENT CLOUD COVER ABOVE
       12000 FEET.
       "FAIR" INDICATES FEW OR NO CLOUDS BELOW 12,000 FEET WITH NO
       SIGNIFICANT WEATHER AND/OR OBSTRUCTIONS TO VISIBILITY.

  * THESE STATIONS DO NOT REPORT WEATHER SUCH AS RAIN...SNOW OR FOG.

NEZ001>004-019>022-054>056-301800-
NEBRASKA PANHANDLE

CITY           SKY/WX    TMP DP  RH WIND       PRES   REMARKS
SCOTTSBLUFF    LGT RAIN  36  32  85 N16       29.97R WCI  26
ALLIANCE       LGT SNOW  34  32  92 N22       29.91R VSB 3/4 WCI  22
CHADRON        LGT RAIN  40  37  89 NE25      30.02R FOG     WCI  29
KIMBALL        HVY RAIN  34  32  94 N20       29.94R VSB 1   WCI  22
SIDNEY         SNOW      34  32  92 N23       29.90R VSB 1/2 WCI  22
$$

NEZ057>060-069>072-079>082-301800-
SOUTHWEST NEBRASKA

CITY           SKY/WX    TMP DP  RH WIND       PRES   REMARKS
NORTH PLATTE   LGT SNOW  35  33  92 N18       29.82R FOG     WCI  24
IMPERIAL       LGT SNOW  35  33  92 N20       29.84S FOG     WCI  24
LEXINGTON      CLOUDY    39  36  87 N15       29.78S WCI  31
MCCOOK         LGT RAIN  38  36  92 N15       29.81R WCI  29
OGALLALA       CLOUDY    36  33  90 N17G23    29.86R FOG     WCI  25
$$

NEZ005>010-023>029-035>040-094-301800-
NORTH CENTRAL NEBRASKA

CITY           SKY/WX    TMP DP  RH WIND       PRES   REMARKS
VALENTINE      LGT RAIN  39  36  89 NE23G31   29.92S WCI  28
AINSWORTH      SNOW      33  33  99 NE13      29.88S VSB 1/2 WCI  24
BROKEN BOW     LGT RAIN  37  35  92 N21G29    29.79R FOG     WCI  26
O`NEILL        RAIN      40  38  93 NE17G30   29.84R WCI  31
ORD            LGT RAIN  42  40  92 NE16      29.77F FOG
$$

NEZ041-046>049-061>064-073>077-083>087-301800-
SOUTH CENTRAL NEBRASKA

CITY           SKY/WX    TMP DP  RH WIND       PRES   REMARKS
GRAND ISLAND   CLOUDY    44  42  93 NE15      29.73S
AURORA         CLOUDY    45  45  99 NE14      29.72R FOG
HASTINGS       CLOUDY    45  42  89 NE10      29.72S
HEBRON         CLOUDY    48  46  93 N3        29.71R FOG
HOLDREGE       CLOUDY    42  41  93 N8        29.75S FOG
KEARNEY *      CLOUDY    43  39  87 N14       29.75R
YORK           CLOUDY    46  45  93 NE9       29.72R FOG
$$

NEZ011>018-030>034-042>045-301800-
NORTHEAST NEBRASKA

CITY           SKY/WX    TMP DP  RH WIND       PRES   REMARKS
NORFOLK        CLOUDY    43  41  93 NE14G22   29.77R FOG
ALBION         CLOUDY    44  42  94 NE16G23   29.76F FOG
BLAIR          LGT RAIN  47  46  95 NE13      29.71S
COLUMBUS *     CLOUDY    46  37  71 NE15      29.74S
FREMONT        CLOUDY    46  46  99 NE10      29.73S FOG
TEKAMAH        LGT RAIN  46  44  93 NE14      29.75S FOG
WAYNE          DRIZZLE   43  42  95 NE16G24   29.80R
$$

NEZ050>053-065>068-078-088>093-301800-
SOUTHEAST NEBRASKA

CITY           SKY/WX    TMP DP  RH WIND       PRES   REMARKS
LINCOLN        CLOUDY    49  47  93 NE13      29.72R FOG
OMAHA EPPLEY   DRIZZLE   48  46  93 E8        29.72S FOG
BEATRICE       CLOUDY    49  48  96 N5        29.69S FOG
FALLS CITY     CLOUDY    56  54  93 SE6       29.66R FOG
NEBRASKA CITY  DRIZZLE   51  51 100 E5        29.69R
PLATTSMOUTH    LGT RAIN  49  48  99 E14       29.70R
$$

NEZ044-045-051>053-067-301800-
OMAHA AREA

CITY           SKY/WX    TMP DP  RH WIND       PRES   REMARKS
OMAHA EPPLEY   DRIZZLE   48  46  93 E8        29.72S FOG
BLAIR          LGT RAIN  47  46  95 NE13      29.71S
FREMONT        CLOUDY    46  46  99 NE10      29.73S FOG
MILLARD        DRIZZLE   48  47  94 E3        29.71S
PLATTSMOUTH    LGT RAIN  49  48  99 E14       29.70R
WAHOO          DRIZZLE   48  46  94 NE12      29.72R
$$




USA.gov is the U.S. government's official web portal to all federal, state and local government web resources and services.